[[{"header":{"parameterUnit":"m.s-1","parameterCategory":1,"la1":30.2991,"la2":30.254,"lo1":-89.0895,"lo2":-89.0444,"dy":0.0017,"dx":0.0017,"nx":28,"ny":28,"refTime":"2025-01-17T03:00:00:Z","depth":0,"parameterNumber":2,"parameterNumberName":"U-component_of_WINDS"},"data":[0,0,0,0,0,0,0,0,0,0,0,0,0,0,0,0,0,0,0,0,0,0,0,0,0,0,0,0,0,0,0,0,0,0,0,0,0,0,0,0,0,0,0,0,0,0,0,0,0,0,0,0,0,0,0,0,0,0,1.3222,1.3222,0,1.3261,1.3261,1.3262,1.3229,1.3227,1.3226,1.3225,1.3266,1.3268,1.327,0,0,0,0,0,0,0,0,0,0,0,0,0,1.3119,1.3122,1.3222,1.3222,1.3223,1.3261,1.3261,1.3262,1.3229,1.3227,1.3226,1.3224,1.3265,1.3268,1.3271,0,0,0,0,0,0,0,0,0,0,0,0,0,1.3162,1.3122,1.3222,1.3211,1.321,1.3261,1.3261,1.3262,1.3229,1.3227,1.3225,1.3223,1.3264,1.3268,1.3271,1.3335,0,0,1.3282,1.3284,0,0,0,0,0,0,0,0,1.3159,1.3166,1.3212,1.3212,1.3211,1.3238,1.324,1.3286,1.323,1.3222,1.3225,1.3222,1.3258,1.3262,1.3274,1.3336,1.3338,1.3282,1.3284,1.3286,1.3287,0,0,0,0,0,0,0,1.3157,1.3164,1.3237,1.3213,1.3212,1.3204,1.3208,1.3249,1.3251,1.3223,1.322,1.3225,1.3258,1.3271,1.3275,1.3339,1.3282,1.3285,1.3288,1.3289,1.3455,1.3458,0,0,0,0,0,0,1.3155,1.3162,1.3236,1.3238,1.318,1.3208,1.3212,1.3231,1.3251,1.3252,1.3227,1.3224,1.3266,1.3271,1.3276,1.3351,1.3286,1.3289,1.3291,1.3453,1.3456,1.3458,0,0,0,0,0,0,1.3153,1.3162,1.3234,1.3199,1.3208,1.3212,1.3234,1.3233,1.3246,1.3254,1.3255,1.324,1.3264,1.3271,1.332,1.3352,1.3291,1.3294,1.345,1.3454,1.3457,1.3503,0,0,0,0,0,0,1.315,1.3161,1.3185,1.32,1.321,1.3278,1.3236,1.3235,1.3252,1.3248,1.3266,1.3267,1.3263,1.3315,1.3324,1.3356,1.3297,1.3448,1.3452,1.3456,1.3498,1.3507,1.3515,0,0,0,0,0,1.3146,1.3196,1.3186,1.3195,1.324,1.3279,1.3285,1.3279,1.3255,1.3279,1.3284,1.3267,1.3348,1.332,1.333,1.3364,1.3445,1.3451,1.3456,1.3495,1.3505,1.3515,0,0,0,0,0,0,1.3185,1.3198,1.3187,1.3243,1.3261,1.3274,1.3304,1.3291,1.3315,1.331,1.3302,1.3306,1.3358,1.3366,1.3335,1.3426,1.3393,1.34,1.3419,1.3429,1.3438,1.3434,1.33,0,0,0,0,0,1.32,1.323,1.3241,1.3289,1.3299,1.33,1.3317,1.3311,1.3328,1.3335,1.3344,1.3362,1.3392,1.3411,1.3439,1.35,1.3503,1.3528,1.3536,1.3543,1.3549,1.3582,1.3593,1.3475,1.3475,1.3475,0,0,1.3231,1.3242,1.3262,1.3297,1.331,1.3342,1.3306,1.3342,1.3366,1.3341,1.3387,1.3395,1.3414,1.347,1.3495,1.3478,1.3582,1.3549,1.3555,1.3557,1.3588,1.3599,1.3609,1.3479,1.3478,1.3477,0,0,1.3304,1.3316,1.3358,1.3371,1.3391,1.3391,1.3402,1.3417,1.3421,1.3468,1.345,1.3478,1.3529,1.3544,1.3558,1.3638,1.3623,1.3647,1.369,1.3722,1.3732,1.374,1.3768,1.3778,1.3654,1.3654,1.3654,0,1.3341,1.3388,1.3381,1.3418,1.3434,1.3413,1.3456,1.3469,1.3497,1.3509,1.349,1.3554,1.3565,1.3624,1.3643,1.3656,1.3667,1.3645,1.3731,1.3739,1.3746,1.3773,1.3784,1.3657,1.3656,1.3656,1.3656,0,1.3432,1.3465,1.3497,1.3524,1.3544,1.3583,1.3583,1.3604,1.3596,1.3599,1.3647,1.3661,1.3691,1.3704,1.3697,1.3762,1.3751,1.3732,1.3698,1.3761,1.3785,1.3796,1.3661,1.366,1.3659,1.3658,0,0,1.3529,1.3552,1.3564,1.3576,1.3596,1.3622,1.3661,1.369,1.3708,1.3729,1.3761,1.3805,1.3788,1.3804,1.3799,1.3827,1.3889,1.3804,1.3804,1.3819,1.3961,1.3974,1.3986,1.3879,1.3881,1.3883,1.3959,0,1.3603,1.367,1.3665,1.3729,1.3759,1.3741,1.3775,1.3791,1.3795,1.3822,1.3827,1.3858,1.3833,1.3842,1.387,1.3876,1.3917,1.387,1.3909,1.3911,1.3904,1.3999,1.4013,1.4084,1.3968,1.397,1.3971,0,1.3697,1.372,1.3787,1.3803,1.3816,1.3846,1.3873,1.3899,1.3918,1.3919,1.3937,1.3927,1.3967,1.3933,1.3988,1.3956,1.3972,1.3978,1.398,1.3983,1.3944,1.4003,1.4107,1.4117,1.3987,1.3985,1.3984,0,1.376,1.3809,1.3855,1.3866,1.3886,1.3908,1.3917,1.3934,1.3952,1.3975,1.3987,1.4015,1.403,1.4052,1.405,1.4026,1.4106,1.4072,1.4108,1.4108,1.4124,1.4123,1.4231,1.4137,1.4137,1.4136,1.4136,0,1.3842,1.3884,1.3883,1.3912,1.3958,1.3952,1.3998,1.4005,1.402,1.405,1.4036,1.4064,1.406,1.4089,1.4088,1.4133,1.4141,1.4142,1.4141,1.4143,1.4143,1.4152,1.4147,1.4139,1.4139,1.4138,1.4138,0,1.392,1.3922,1.3971,1.3986,1.3991,1.4024,1.4037,1.4064,1.4067,1.4105,1.4114,1.4119,1.4152,1.4153,1.419,1.419,1.4245,1.4239,1.4238,1.4237,1.4272,1.4269,1.4389,1.4404,1.4301,1.4302,1.4303,0,1.3972,1.4003,1.4022,1.4041,1.4051,1.4082,1.41,1.4097,1.4116,1.414,1.4164,1.4196,1.4221,1.4274,1.4281,1.431,1.4304,1.4345,1.4309,1.4309,1.4304,1.4302,1.4305,1.4351,1.4352,1.4353,1.4354,0,1.4063,1.4062,1.4089,1.4117,1.4139,1.416,1.418,1.4196,1.4195,1.4218,1.4251,1.427,1.4309,1.434,1.4369,1.4379,1.4366,1.4366,1.4375,1.4377,1.4375,1.4375,1.4256,1.4363,1.4362,1.4361,1.4361,1.436,1.4129,1.4156,1.4173,1.4203,1.4218,1.4237,1.4263,1.427,1.4297,1.4328,1.4325,1.4362,1.438,1.4417,1.443,1.4459,1.4445,1.4459,1.4462,1.4466,1.4469,1.4371,1.4464,1.4464,1.4463,1.4463,1.4463,0,1.4218,1.4229,1.4257,1.4285,1.4309,1.4296,1.4317,1.4338,1.4371,1.4389,1.4414,1.4452,1.4483,1.4493,1.4523,1.4544,1.4539,1.4552,1.455,1.4552,1.448,1.4468,1.4556,1.4556,1.4556,1.4556,1.4556,1.4556,1.4267,1.4312,1.4314,1.4366,1.4377,1.4412,1.4426,1.4443,1.4458,1.4501,1.4526,1.4533,1.4548,1.4579,1.4607,1.4609,1.462,1.4635,1.4635,1.4567,1.4558,1.4549,1.4537,1.4638,1.4638,1.4705,1.4705,1.4706]},{"header":{"parameterUnit":"m.s-1","parameterCategory":1,"la1":30.2991,"la2":30.254,"lo1":-89.0895,"lo2":-89.0444,"dy":0.0017,"dx":0.0017,"nx":28,"ny":28,"refTime":"2025-01-17T03:00:00:Z","depth":0,"parameterNumber":3,"parameterNumberName":"V-component_of_WINDS"},"data":[0,0,0,0,0,0,0,0,0,0,0,0,0,0,0,0,0,0,0,0,0,0,0,0,0,0,0,0,0,0,0,0,0,0,0,0,0,0,0,0,0,0,0,0,0,0,0,0,0,0,0,0,0,0,0,0,0,0,1.3565,1.3565,0,1.3547,1.3547,1.3546,1.3479,1.3478,1.3476,1.3475,1.3457,1.3458,1.3459,0,0,0,0,0,0,0,0,0,0,0,0,0,1.3543,1.3543,1.3565,1.3565,1.3564,1.3547,1.3547,1.3546,1.348,1.3478,1.3476,1.3474,1.3457,1.3458,1.3459,0,0,0,0,0,0,0,0,0,0,0,0,0,1.3541,1.3544,1.3565,1.3529,1.3526,1.3547,1.3547,1.3546,1.348,1.3478,1.3475,1.3473,1.3457,1.3458,1.3459,1.3514,0,0,1.3464,1.3464,0,0,0,0,0,0,0,0,1.3542,1.3542,1.3535,1.3532,1.3528,1.3513,1.3532,1.3536,1.3481,1.3497,1.3475,1.3472,1.3478,1.3477,1.3479,1.3513,1.3513,1.3464,1.3465,1.3465,1.3466,0,0,0,0,0,0,0,1.3542,1.3543,1.3558,1.3535,1.353,1.3514,1.3511,1.3533,1.3501,1.3496,1.3491,1.349,1.3475,1.3478,1.3478,1.3512,1.3464,1.3465,1.3466,1.3467,1.3591,1.3593,0,0,0,0,0,0,1.3547,1.3543,1.3558,1.3557,1.3529,1.3516,1.3513,1.352,1.35,1.3495,1.3492,1.3487,1.3476,1.3476,1.3477,1.354,1.3465,1.3467,1.3468,1.3589,1.3592,1.3594,0,0,0,0,0,0,1.3547,1.3549,1.3559,1.3549,1.3549,1.3519,1.3527,1.3521,1.3523,1.3497,1.3491,1.35,1.3475,1.3475,1.3505,1.3539,1.3467,1.3469,1.3586,1.359,1.3593,1.3666,0,0,0,0,0,0,1.3546,1.3549,1.3569,1.355,1.355,1.3588,1.3529,1.3522,1.3526,1.3519,1.3503,1.3498,1.3473,1.3504,1.3507,1.3539,1.347,1.3583,1.3588,1.3592,1.3661,1.3672,1.3682,0,0,0,0,0,1.3546,1.3591,1.3571,1.3573,1.3574,1.359,1.359,1.3559,1.3529,1.3549,1.3532,1.3499,1.3535,1.3507,1.351,1.3544,1.3581,1.3586,1.3592,1.3656,1.367,1.3682,0,0,0,0,0,0,1.3615,1.3588,1.3565,1.3605,1.36,1.3578,1.3603,1.3575,1.3578,1.3572,1.3534,1.3531,1.3567,1.3558,1.3529,1.3596,1.3552,1.3558,1.36,1.3613,1.3623,1.3624,1.3471,0,0,0,0,0,1.3635,1.3649,1.3625,1.3663,1.3661,1.3633,1.3638,1.3615,1.3609,1.3606,1.3592,1.3587,1.3597,1.3605,1.3612,1.3659,1.3655,1.3684,1.3694,1.3703,1.3709,1.3733,1.3746,1.3612,1.3612,1.3612,0,0,1.3676,1.3663,1.3675,1.3676,1.367,1.3686,1.3631,1.3651,1.3662,1.3609,1.3637,1.3626,1.3619,1.3658,1.3674,1.3651,1.3745,1.371,1.3717,1.3718,1.374,1.3753,1.3764,1.3616,1.3615,1.3615,0,0,1.376,1.3751,1.3782,1.3777,1.3767,1.3748,1.3756,1.3738,1.3729,1.3756,1.3717,1.3731,1.3749,1.3745,1.3745,1.3828,1.3798,1.3832,1.3886,1.3911,1.3921,1.393,1.396,1.3971,1.3838,1.3838,1.3838,0,1.3813,1.3835,1.3801,1.3823,1.3825,1.3778,1.3809,1.3806,1.38,1.3802,1.3777,1.3799,1.3791,1.3828,1.3849,1.385,1.3858,1.3833,1.3922,1.3931,1.3939,1.3967,1.3978,1.3842,1.3842,1.3842,1.3841,0,1.39,1.3916,1.3942,1.3937,1.3942,1.3969,1.394,1.3949,1.3926,1.391,1.3938,1.3926,1.3931,1.3938,1.3916,1.3973,1.3959,1.3929,1.3884,1.3957,1.3982,1.3993,1.3848,1.3847,1.3846,1.3845,0,0,1.4026,1.4003,1.4013,1.401,1.3997,1.4009,1.4034,1.4038,1.4047,1.4045,1.4065,1.4081,1.4053,1.4054,1.4031,1.4052,1.4119,1.4019,1.4018,1.4038,1.4181,1.4204,1.4217,1.4099,1.4101,1.4102,1.4182,0,1.4105,1.4145,1.4116,1.4162,1.4176,1.4132,1.4154,1.4148,1.4134,1.4145,1.4129,1.4141,1.4103,1.4103,1.4123,1.4107,1.4147,1.4101,1.4117,1.4118,1.412,1.423,1.4254,1.433,1.4192,1.4193,1.4195,0,1.4203,1.4205,1.4252,1.4236,1.4241,1.4261,1.4263,1.4273,1.4267,1.4255,1.4256,1.4227,1.4251,1.4207,1.4239,1.4208,1.4213,1.4207,1.4209,1.4209,1.4161,1.4233,1.4353,1.4365,1.421,1.4209,1.4208,0,1.429,1.4305,1.4334,1.4334,1.4316,1.4331,1.4324,1.4315,1.432,1.4322,1.4325,1.433,1.4332,1.4337,1.4311,1.4281,1.4346,1.43,1.4337,1.4338,1.4352,1.4352,1.4475,1.4357,1.4357,1.4356,1.4356,0,1.4381,1.4412,1.4373,1.4392,1.4424,1.4391,1.4425,1.4414,1.4406,1.4422,1.4384,1.44,1.4365,1.4377,1.4357,1.4386,1.4388,1.4379,1.4373,1.4382,1.4383,1.4385,1.4379,1.4359,1.4359,1.4358,1.4358,0,1.4484,1.4459,1.4489,1.447,1.4466,1.4491,1.4475,1.4491,1.4475,1.4495,1.4498,1.4472,1.4485,1.4459,1.4468,1.4455,1.4497,1.4483,1.4499,1.4495,1.4533,1.453,1.4661,1.4676,1.4549,1.455,1.4551,0,1.4543,1.4565,1.4549,1.4557,1.4552,1.4565,1.457,1.4539,1.4545,1.4539,1.4557,1.4566,1.4572,1.4594,1.4576,1.4583,1.4569,1.4615,1.457,1.4578,1.4569,1.4568,1.457,1.4624,1.4625,1.4627,1.4628,0,1.4652,1.4639,1.4646,1.4651,1.4657,1.4659,1.4658,1.4667,1.4634,1.4643,1.4655,1.466,1.4669,1.4679,1.4682,1.4675,1.4646,1.4642,1.4651,1.466,1.4668,1.4664,1.4524,1.4639,1.4638,1.4637,1.4636,1.4636,1.4734,1.4752,1.4743,1.4754,1.475,1.475,1.4765,1.475,1.476,1.4765,1.4746,1.4763,1.4756,1.4757,1.4753,1.4766,1.4746,1.4759,1.4762,1.4765,1.4772,1.4667,1.4767,1.4766,1.4766,1.4766,1.4765,0,1.484,1.4832,1.4842,1.4842,1.4851,1.4823,1.4821,1.483,1.4845,1.4841,1.4847,1.4862,1.4871,1.4855,1.4862,1.4875,1.4862,1.4878,1.4877,1.4876,1.4789,1.4781,1.4889,1.4889,1.4889,1.4889,1.4889,1.4889,1.4896,1.4925,1.4911,1.4938,1.493,1.4946,1.4947,1.4948,1.4944,1.4962,1.497,1.4959,1.495,1.4956,1.4964,1.4959,1.4963,1.4984,1.4974,1.4894,1.4882,1.487,1.4862,1.4985,1.4985,1.5059,1.506,1.5061]}]]